Torna al catalogo

CZ-6A DEB

AttivoPO
NORAD 61398·DEBRIS·🇨🇳 China

Lanciato Aug 6, 2024 da Taiyuan Satellite Launch Center

Loading…

Prossimi Passaggi (prossime 24 ore)

TLE

AggiornatoSource: Space-Track

Epoca: Sep 14, 2026, 06:13 UTC

1 61398U 24140XP  26257.25953956  .00000455  00000-0  25398-3 0  9998
2 61398  88.9594 263.5274 0098732 299.0434  60.0885 14.06887447103315

Traccia CZ-6A DEB in tempo reale con AllMySat

Download on the App Store